Location: Foligno
(42.9600°N, 12.7050°E)
Time: 21:14:50
(UTC+01:00)

ISS - Pass Details

Date: 12 January 2018
Orbit: 402 x 407 km, 51.6° (Epoch: 17 January)

Event Time Altitude Azimuth Distance (km) Brightness Sun altitude
Exits shadow 06:24:08 23° 311° (NW) 907 -2.6 -13.4°
Maximum altitude 06:25:59 70° 31° (NNE) 434 -3.7 -13.1°
Drops below altitude 10° 06:29:15 10° 116° (ESE) 1,461 0.5 -12.5°
Sets 06:31:20 0° 119° (ESE) 2,319 1.9 -12.1°
